Time,TemperatureF,DewpointF,PressureIn,WindDirection,WindDirectionDegrees,WindSpeedMPH,WindSpeedGustMPH,Humidity,HourlyPrecipIn,Conditions,Clouds,dailyrainin,SoftwareType,DateUTC
2013-09-26 00:00:00,52.5,33.9,30.56,WNW,287,0.0,0.0,49,0.00,,,0.00,VWS V14.01,2013-09-26 04:00:00,
2013-09-26 00:01:00,52.5,34.4,30.56,WNW,287,0.0,0.0,50,0.00,,,0.00,VWS V14.01,2013-09-26 04:01:00,
2013-09-26 00:02:00,52.5,34.4,30.56,WNW,287,0.0,0.0,50,0.00,,,0.00,VWS V14.01,2013-09-26 04:02:00,
2013-09-26 00:07:00,52.3,34.3,30.65,WNW,287,0.0,0.0,50,0.00,,,0.00,VWS V14.01,2013-09-26 04:07:00,
2013-09-26 00:12:00,52.3,34.3,30.65,WNW,287,0.0,0.0,50,0.00,,,0.00,VWS V14.01,2013-09-26 04:12:00,
2013-09-26 00:17:00,52.3,34.3,30.65,WNW,287,0.0,0.0,50,0.00,,,0.00,VWS V14.01,2013-09-26 04:17:00,
2013-09-26 00:23:00,52.2,34.1,30.36,WNW,287,0.0,0.0,50,0.00,,,0.00,VWS V14.01,2013-09-26 04:23:00,
2013-09-26 00:28:00,52.2,34.1,30.36,WNW,287,0.0,0.0,50,0.00,,,0.00,VWS V14.01,2013-09-26 04:28:00,
2013-09-26 00:33:00,52.2,34.6,30.36,WNW,287,0.0,0.0,51,0.00,,,0.00,VWS V14.01,2013-09-26 04:33:00,
2013-09-26 00:38:00,52.0,34.4,30.59,WNW,287,0.0,0.0,51,0.00,,,0.00,VWS V14.01,2013-09-26 04:38:00,
2013-09-26 00:43:00,52.0,34.4,30.59,WNW,287,0.0,0.0,51,0.00,,,0.00,VWS V14.01,2013-09-26 04:43:00,
2013-09-26 00:48:00,52.0,34.4,30.59,WNW,287,0.0,0.0,51,0.00,,,0.00,VWS V14.01,2013-09-26 04:48:00,
2013-09-26 00:53:00,51.8,34.3,30.86,WNW,287,0.0,0.0,51,0.00,,,0.00,VWS V14.01,2013-09-26 04:53:00,
2013-09-26 00:58:00,51.8,34.3,30.86,WNW,287,0.0,0.0,51,0.00,,,0.00,VWS V14.01,2013-09-26 04:58:00,
2013-09-26 01:03:00,51.8,34.8,30.86,WNW,287,0.0,0.0,52,0.00,,,0.00,VWS V14.01,2013-09-26 05:03:00,
2013-09-26 01:08:00,52.0,34.9,30.56,WNW,287,0.0,0.0,52,0.00,,,0.00,VWS V14.01,2013-09-26 05:08:00,
2013-09-26 01:13:00,52.0,34.9,30.56,WNW,287,0.0,0.0,52,0.00,,,0.00,VWS V14.01,2013-09-26 05:13:00,
2013-09-26 01:18:00,52.0,34.9,30.56,WNW,287,0.0,0.0,52,0.00,,,0.00,VWS V14.01,2013-09-26 05:18:00,
2013-09-26 01:23:00,52.0,34.9,30.68,WNW,287,0.0,0.0,52,0.00,,,0.00,VWS V14.01,2013-09-26 05:23:00,
2013-09-26 01:28:00,51.8,34.8,30.68,WNW,287,0.0,0.0,52,0.00,,,0.00,VWS V14.01,2013-09-26 05:28:00,
2013-09-26 01:33:00,51.8,35.2,30.68,WNW,287,0.0,0.0,53,0.00,,,0.00,VWS V14.01,2013-09-26 05:33:00,
2013-09-26 01:38:00,51.8,35.2,30.56,WNW,287,0.0,0.0,53,0.00,,,0.00,VWS V14.01,2013-09-26 05:38:00,
2013-09-26 01:43:00,51.8,35.2,30.56,WNW,287,0.0,0.0,53,0.00,,,0.00,VWS V14.01,2013-09-26 05:43:00,
2013-09-26 01:48:00,51.6,35.5,30.56,WNW,287,0.0,0.0,54,0.00,,,0.00,VWS V14.01,2013-09-26 05:48:00,
2013-09-26 01:53:00,51.6,35.5,30.30,WNW,287,0.0,0.0,54,0.00,,,0.00,VWS V14.01,2013-09-26 05:53:00,
2013-09-26 01:58:00,51.6,35.5,30.30,WNW,287,0.0,0.0,54,0.00,,,0.00,VWS V14.01,2013-09-26 05:58:00,
2013-09-26 02:03:00,51.8,35.7,30.30,WNW,287,0.0,0.0,54,0.00,,,0.00,VWS V14.01,2013-09-26 06:03:00,
2013-09-26 02:08:00,51.8,35.7,30.47,WNW,287,0.0,0.0,54,0.00,,,0.00,VWS V14.01,2013-09-26 06:08:00,
2013-09-26 02:13:00,51.8,35.7,30.47,WNW,287,0.0,0.0,54,0.00,,,0.00,VWS V14.01,2013-09-26 06:13:00,
2013-09-26 02:18:00,51.8,35.7,30.47,WNW,287,0.0,0.0,54,0.00,,,0.00,VWS V14.01,2013-09-26 06:18:00,
2013-09-26 02:23:00,51.8,35.7,31.01,WNW,287,0.0,0.0,54,0.00,,,0.00,VWS V14.01,2013-09-26 06:23:00,
2013-09-26 02:28:00,51.8,35.7,31.01,WNW,287,0.0,0.0,54,0.00,,,0.00,VWS V14.01,2013-09-26 06:28:00,
2013-09-26 02:33:00,52.0,36.3,31.01,WNW,287,0.0,0.0,55,0.00,,,0.00,VWS V14.01,2013-09-26 06:33:00,
2013-09-26 02:38:00,52.0,36.3,30.95,WNW,287,0.0,0.0,55,0.00,,,0.00,VWS V14.01,2013-09-26 06:38:00,
2013-09-26 02:43:00,52.2,36.5,30.95,WNW,287,0.0,0.0,55,0.00,,,0.00,VWS V14.01,2013-09-26 06:43:00,
2013-09-26 02:48:00,52.3,36.7,30.95,WNW,287,0.0,0.0,55,0.00,,,0.00,VWS V14.01,2013-09-26 06:48:00,
2013-09-26 02:53:00,52.3,36.7,30.65,WNW,287,0.0,0.0,55,0.00,,,0.00,VWS V14.01,2013-09-26 06:53:00,
2013-09-26 02:58:00,52.3,36.7,30.65,WNW,287,0.0,0.0,55,0.00,,,0.00,VWS V14.01,2013-09-26 06:58:00,
2013-09-26 03:03:00,52.2,37.0,30.65,WNW,287,0.0,0.0,56,0.00,,,0.00,VWS V14.01,2013-09-26 07:03:00,
2013-09-26 03:08:00,52.3,37.1,30.56,WNW,287,0.0,0.0,56,0.00,,,0.00,VWS V14.01,2013-09-26 07:08:00,
2013-09-26 03:13:00,52.3,37.1,30.56,WNW,287,0.0,0.0,56,0.00,,,0.00,VWS V14.01,2013-09-26 07:13:00,
2013-09-26 03:18:00,52.2,37.0,30.56,WNW,287,0.0,0.0,56,0.00,,,0.00,VWS V14.01,2013-09-26 07:18:00,
2013-09-26 03:23:00,52.3,37.1,30.62,WNW,287,0.0,0.0,56,0.00,,,0.00,VWS V14.01,2013-09-26 07:23:00,
2013-09-26 03:28:00,52.2,37.0,30.62,WNW,287,0.0,0.0,56,0.00,,,0.00,VWS V14.01,2013-09-26 07:28:00,
2013-09-26 03:33:00,52.2,37.0,30.62,WNW,287,0.0,0.0,56,0.00,,,0.00,VWS V14.01,2013-09-26 07:33:00,
2013-09-26 03:38:00,52.2,37.0,30.89,WNW,287,0.0,0.0,56,0.00,,,0.00,VWS V14.01,2013-09-26 07:38:00,
2013-09-26 03:43:00,52.2,37.0,30.89,WNW,287,0.0,0.0,56,0.00,,,0.00,VWS V14.01,2013-09-26 07:43:00,
2013-09-26 03:48:00,52.2,37.4,30.89,WNW,287,0.0,0.0,57,0.00,,,0.00,VWS V14.01,2013-09-26 07:48:00,
2013-09-26 03:53:00,52.3,37.6,30.95,WNW,287,0.0,0.0,57,0.00,,,0.00,VWS V14.01,2013-09-26 07:53:00,
2013-09-26 03:58:00,52.3,37.6,30.95,WNW,287,0.0,0.0,57,0.00,,,0.00,VWS V14.01,2013-09-26 07:58:00,
2013-09-26 04:03:00,52.3,37.6,30.95,WNW,287,0.0,0.0,57,0.00,,,0.00,VWS V14.01,2013-09-26 08:03:00,
2013-09-26 04:08:00,52.3,37.6,30.80,WNW,287,0.0,0.0,57,0.00,,,0.00,VWS V14.01,2013-09-26 08:08:00,
2013-09-26 04:13:00,52.3,37.6,30.80,WNW,287,0.0,0.0,57,0.00,,,0.00,VWS V14.01,2013-09-26 08:13:00,
2013-09-26 04:18:00,52.2,37.4,30.80,WNW,287,0.0,0.0,57,0.00,,,0.00,VWS V14.01,2013-09-26 08:18:00,
2013-09-26 04:23:00,52.2,37.4,31.01,WNW,287,0.0,0.0,57,0.00,,,0.00,VWS V14.01,2013-09-26 08:23:00,
2013-09-26 04:28:00,52.0,37.2,31.01,WNW,287,0.0,0.0,57,0.00,,,0.00,VWS V14.01,2013-09-26 08:28:00,
2013-09-26 04:33:00,51.8,37.1,31.01,WNW,287,0.0,0.0,57,0.00,,,0.00,VWS V14.01,2013-09-26 08:33:00,
2013-09-26 04:38:00,51.8,37.1,30.77,WNW,287,0.0,0.0,57,0.00,,,0.00,VWS V14.01,2013-09-26 08:38:00,
2013-09-26 04:43:00,51.6,36.9,30.77,WNW,287,0.0,0.0,57,0.00,,,0.00,VWS V14.01,2013-09-26 08:43:00,
2013-09-26 04:48:00,51.6,37.3,30.77,WNW,287,0.0,0.0,58,0.00,,,0.00,VWS V14.01,2013-09-26 08:48:00,
2013-09-26 04:53:00,51.6,37.3,30.80,WNW,287,0.0,0.0,58,0.00,,,0.00,VWS V14.01,2013-09-26 08:53:00,
2013-09-26 04:58:00,51.4,36.7,30.80,WNW,287,0.0,0.0,57,0.00,,,0.00,VWS V14.01,2013-09-26 08:58:00,
2013-09-26 05:03:00,51.4,37.2,30.80,WNW,287,0.0,0.0,58,0.00,,,0.00,VWS V14.01,2013-09-26 09:03:00,
2013-09-26 05:08:00,51.3,37.0,31.01,WNW,287,0.0,0.0,58,0.00,,,0.00,VWS V14.01,2013-09-26 09:08:00,
2013-09-26 05:13:00,51.3,37.0,31.01,WNW,287,0.0,0.0,58,0.00,,,0.00,VWS V14.01,2013-09-26 09:13:00,
2013-09-26 05:18:00,51.3,37.0,31.01,WNW,287,0.0,0.0,58,0.00,,,0.00,VWS V14.01,2013-09-26 09:18:00,
2013-09-26 05:23:00,51.3,37.0,30.95,WNW,287,0.0,0.0,58,0.00,,,0.00,VWS V14.01,2013-09-26 09:23:00,
2013-09-26 05:28:00,51.3,37.0,30.95,WNW,287,0.0,0.0,58,0.00,,,0.00,VWS V14.01,2013-09-26 09:28:00,
2013-09-26 05:33:00,51.3,37.0,30.95,WNW,287,0.0,0.0,58,0.00,,,0.00,VWS V14.01,2013-09-26 09:33:00,
2013-09-26 05:38:00,51.1,36.8,30.95,WNW,287,0.0,0.0,58,0.00,,,0.00,VWS V14.01,2013-09-26 09:38:00,
2013-09-26 05:43:00,50.9,36.7,30.95,WNW,287,0.0,0.0,58,0.00,,,0.00,VWS V14.01,2013-09-26 09:43:00,
2013-09-26 05:48:00,50.9,37.1,30.95,WNW,287,0.0,0.0,59,0.00,,,0.00,VWS V14.01,2013-09-26 09:48:00,
2013-09-26 05:53:00,50.9,37.1,30.95,WNW,287,0.0,0.0,59,0.00,,,0.00,VWS V14.01,2013-09-26 09:53:00,
2013-09-26 05:58:00,50.7,36.5,30.95,WNW,287,0.0,0.0,58,0.00,,,0.00,VWS V14.01,2013-09-26 09:58:00,
2013-09-26 06:03:00,50.5,36.8,30.95,WNW,287,0.0,0.0,59,0.00,,,0.00,VWS V14.01,2013-09-26 10:03:00,
2013-09-26 06:08:00,50.5,36.8,30.71,WNW,287,0.0,0.0,59,0.00,,,0.00,VWS V14.01,2013-09-26 10:08:00,
2013-09-26 06:13:00,50.5,36.8,30.71,WNW,287,0.0,0.0,59,0.00,,,0.00,VWS V14.01,2013-09-26 10:13:00,
2013-09-26 06:18:00,50.4,36.6,30.71,WNW,287,0.0,0.0,59,0.00,,,0.00,VWS V14.01,2013-09-26 10:18:00,
2013-09-26 06:23:00,50.0,36.2,30.65,WNW,287,0.0,0.0,59,0.00,,,0.00,VWS V14.01,2013-09-26 10:23:00,
2013-09-26 06:28:00,49.8,36.5,30.65,WNW,287,0.0,0.0,60,0.00,,,0.00,VWS V14.01,2013-09-26 10:28:00,
2013-09-26 06:34:00,49.6,36.3,30.65,WNW,287,0.0,0.0,60,0.00,,,0.00,VWS V14.01,2013-09-26 10:34:00,
2013-09-26 06:39:00,49.5,36.2,30.77,WNW,287,0.0,0.0,60,0.00,,,0.00,VWS V14.01,2013-09-26 10:39:00,
2013-09-26 06:44:00,49.3,36.0,30.77,WNW,287,0.0,0.0,60,0.00,,,0.00,VWS V14.01,2013-09-26 10:44:00,
2013-09-26 06:49:00,49.5,36.6,30.77,WNW,287,0.0,0.0,61,0.00,,,0.00,VWS V14.01,2013-09-26 10:49:00,
2013-09-26 06:54:00,49.5,36.6,30.80,WNW,287,0.0,0.0,61,0.00,,,0.00,VWS V14.01,2013-09-26 10:54:00,
2013-09-26 06:59:00,49.5,36.6,30.80,WNW,287,0.0,0.0,61,0.00,,,0.00,VWS V14.01,2013-09-26 10:59:00,
2013-09-26 07:04:00,49.5,36.6,30.80,WNW,287,0.0,0.0,61,0.00,,,0.00,VWS V14.01,2013-09-26 11:04:00,
2013-09-26 07:09:00,49.5,36.6,30.59,WNW,287,0.0,0.0,61,0.00,,,0.00,VWS V14.01,2013-09-26 11:09:00,
2013-09-26 07:14:00,49.3,36.4,30.59,WNW,287,0.0,0.0,61,0.00,,,0.00,VWS V14.01,2013-09-26 11:14:00,
2013-09-26 07:19:00,49.3,36.4,30.59,WNW,287,0.0,0.0,61,0.00,,,0.00,VWS V14.01,2013-09-26 11:19:00,
2013-09-26 07:24:00,49.3,36.4,30.80,WNW,287,0.0,0.0,61,0.00,,,0.00,VWS V14.01,2013-09-26 11:24:00,
2013-09-26 07:29:00,49.3,36.4,30.80,WNW,287,0.0,0.0,61,0.00,,,0.00,VWS V14.01,2013-09-26 11:29:00,
2013-09-26 07:34:00,49.3,36.4,30.80,WNW,287,0.0,0.0,61,0.00,,,0.00,VWS V14.01,2013-09-26 11:34:00,
2013-09-26 07:39:00,49.3,36.4,31.01,WNW,287,0.0,0.0,61,0.00,,,0.00,VWS V14.01,2013-09-26 11:39:00,
2013-09-26 07:44:00,49.5,36.6,31.01,WNW,287,0.0,0.0,61,0.00,,,0.00,VWS V14.01,2013-09-26 11:44:00,
2013-09-26 07:49:00,49.6,36.8,31.01,WNW,287,0.0,0.0,61,0.00,,,0.00,VWS V14.01,2013-09-26 11:49:00,
2013-09-26 07:54:00,50.0,37.1,31.01,WNW,287,0.0,0.0,61,0.00,,,0.00,VWS V14.01,2013-09-26 11:54:00,
2013-09-26 07:59:00,50.2,37.7,31.01,WNW,287,0.0,0.0,62,0.00,,,0.00,VWS V14.01,2013-09-26 11:59:00,
2013-09-26 08:04:00,50.5,38.0,31.01,WNW,287,0.0,0.0,62,0.00,,,0.00,VWS V14.01,2013-09-26 12:04:00,
2013-09-26 08:09:00,50.7,38.2,31.01,WNW,287,0.0,0.0,62,0.00,,,0.00,VWS V14.01,2013-09-26 12:09:00,
2013-09-26 08:14:00,51.1,38.5,31.01,WNW,287,0.0,0.0,62,0.00,,,0.00,VWS V14.01,2013-09-26 12:14:00,
2013-09-26 08:19:00,51.4,38.9,31.01,WNW,287,0.0,0.0,62,0.00,,,0.00,VWS V14.01,2013-09-26 12:19:00,
2013-09-26 08:24:00,51.6,39.5,31.01,WNW,287,0.0,0.0,63,0.00,,,0.00,VWS V14.01,2013-09-26 12:24:00,
2013-09-26 08:29:00,52.0,39.4,31.01,WNW,287,0.0,0.0,62,0.00,,,0.00,VWS V14.01,2013-09-26 12:29:00,
2013-09-26 08:34:00,52.5,40.3,31.01,WNW,287,0.0,0.0,63,0.00,,,0.00,VWS V14.01,2013-09-26 12:34:00,
2013-09-26 08:39:00,53.1,40.8,31.01,WNW,287,0.0,0.0,63,0.00,,,0.00,VWS V14.01,2013-09-26 12:39:00,
2013-09-26 08:44:00,53.6,41.3,31.01,WNW,287,0.0,0.0,63,0.00,,,0.00,VWS V14.01,2013-09-26 12:44:00,
2013-09-26 08:49:00,54.1,41.8,31.01,WNW,287,0.0,0.0,63,0.00,,,0.00,VWS V14.01,2013-09-26 12:49:00,
2013-09-26 08:54:00,54.5,42.2,31.01,WNW,287,0.0,0.0,63,0.00,,,0.00,VWS V14.01,2013-09-26 12:54:00,
2013-09-26 08:59:00,54.9,42.5,31.01,WNW,287,0.0,0.0,63,0.00,,,0.00,VWS V14.01,2013-09-26 12:59:00,
2013-09-26 09:04:00,55.2,42.9,31.01,WNW,287,0.0,0.0,63,0.00,,,0.00,VWS V14.01,2013-09-26 13:04:00,
2013-09-26 09:09:00,55.8,43.4,31.01,WNW,287,0.0,0.0,63,0.00,,,0.00,VWS V14.01,2013-09-26 13:09:00,
2013-09-26 09:14:00,56.1,43.7,31.01,WNW,287,0.0,0.0,63,0.00,,,0.00,VWS V14.01,2013-09-26 13:14:00,
2013-09-26 09:19:00,56.5,43.6,31.01,WNW,287,0.0,0.0,62,0.00,,,0.00,VWS V14.01,2013-09-26 13:19:00,
2013-09-26 09:24:00,56.8,44.0,31.01,WNW,287,0.0,0.0,62,0.00,,,0.00,VWS V14.01,2013-09-26 13:24:00,
2013-09-26 09:29:00,57.2,43.9,31.01,WNW,287,0.0,0.0,61,0.00,,,0.00,VWS V14.01,2013-09-26 13:29:00,
2013-09-26 09:34:00,57.6,44.2,31.01,WNW,287,0.0,0.0,61,0.00,,,0.00,VWS V14.01,2013-09-26 13:34:00,
2013-09-26 09:39:00,57.9,44.6,31.01,WNW,287,0.0,0.0,61,0.00,,,0.00,VWS V14.01,2013-09-26 13:39:00,
2013-09-26 09:44:00,58.3,44.5,31.01,WNW,287,0.0,0.0,60,0.00,,,0.00,VWS V14.01,2013-09-26 13:44:00,
2013-09-26 09:49:00,58.6,44.8,31.01,WNW,287,0.0,0.0,60,0.00,,,0.00,VWS V14.01,2013-09-26 13:49:00,
2013-09-26 09:54:00,58.8,44.1,31.01,WNW,287,0.0,0.0,58,0.00,,,0.00,VWS V14.01,2013-09-26 13:54:00,
2013-09-26 09:59:00,59.7,43.1,31.01,WNW,287,0.0,0.0,54,0.00,,,0.00,VWS V14.01,2013-09-26 13:59:00,
2013-09-26 10:04:00,60.6,43.9,31.01,WNW,287,0.0,0.0,54,0.00,,,0.00,VWS V14.01,2013-09-26 14:04:00,
2013-09-26 10:09:00,61.3,42.0,31.01,WNW,287,0.0,0.0,49,0.00,,,0.00,VWS V14.01,2013-09-26 14:09:00,
2013-09-26 10:14:00,61.7,39.0,31.01,WNW,287,0.0,0.0,43,0.00,,,0.00,VWS V14.01,2013-09-26 14:14:00,
2013-09-26 10:19:00,62.6,39.8,31.01,WNW,287,0.0,0.0,43,0.00,,,0.00,VWS V14.01,2013-09-26 14:19:00,
2013-09-26 10:24:00,63.0,37.6,31.01,WNW,287,0.0,0.0,39,0.00,,,0.00,VWS V14.01,2013-09-26 14:24:00,
2013-09-26 10:29:00,63.5,36.8,31.01,WNW,287,0.0,0.0,37,0.00,,,0.00,VWS V14.01,2013-09-26 14:29:00,
2013-09-26 10:34:00,64.0,35.9,31.01,WNW,287,0.0,0.0,35,0.00,,,0.00,VWS V14.01,2013-09-26 14:34:00,
2013-09-26 10:39:00,64.8,35.8,30.98,WNW,287,0.0,0.0,34,0.00,,,0.00,VWS V14.01,2013-09-26 14:39:00,
2013-09-26 10:44:00,65.7,35.8,30.98,WNW,287,0.0,0.0,33,0.00,,,0.00,VWS V14.01,2013-09-26 14:44:00,
2013-09-26 10:49:00,65.8,36.0,30.98,WNW,287,0.0,0.0,33,0.00,,,0.00,VWS V14.01,2013-09-26 14:49:00,
2013-09-26 10:54:00,67.1,37.1,30.77,WNW,287,0.0,0.0,33,0.00,,,0.00,VWS V14.01,2013-09-26 14:54:00,
2013-09-26 10:59:00,67.8,37.7,30.77,WNW,287,0.0,0.0,33,0.00,,,0.00,VWS V14.01,2013-09-26 14:59:00,
2013-09-26 11:04:00,68.0,35.4,30.77,WNW,287,0.0,0.0,30,0.00,,,0.00,VWS V14.01,2013-09-26 15:04:00,
2013-09-26 11:09:00,68.2,35.6,30.65,WNW,287,0.0,0.0,30,0.00,,,0.00,VWS V14.01,2013-09-26 15:09:00,
2013-09-26 11:14:00,68.9,36.2,30.65,WNW,287,0.0,0.0,30,0.00,,,0.00,VWS V14.01,2013-09-26 15:14:00,
2013-09-26 11:19:00,69.4,35.0,30.65,WNW,287,0.0,0.0,28,0.00,,,0.00,VWS V14.01,2013-09-26 15:19:00,
2013-09-26 11:24:00,70.2,35.6,30.89,WNW,287,0.0,0.0,28,0.00,,,0.00,VWS V14.01,2013-09-26 15:24:00,
2013-09-26 11:29:00,70.3,33.9,30.89,WNW,287,0.0,0.0,26,0.00,,,0.00,VWS V14.01,2013-09-26 15:29:00,
2013-09-26 11:34:00,70.7,34.2,30.89,WNW,287,0.0,0.0,26,0.00,,,0.00,VWS V14.01,2013-09-26 15:34:00,
2013-09-26 11:39:00,71.2,34.6,30.86,WNW,287,0.0,0.0,26,0.00,,,0.00,VWS V14.01,2013-09-26 15:39:00,
2013-09-26 11:44:00,71.4,33.8,30.86,WNW,287,0.0,0.0,25,0.00,,,0.00,VWS V14.01,2013-09-26 15:44:00,
2013-09-26 11:49:00,71.4,33.8,30.86,WNW,287,0.0,0.0,25,0.00,,,0.00,VWS V14.01,2013-09-26 15:49:00,
2013-09-26 11:54:00,71.6,32.9,31.01,WNW,287,0.0,0.0,24,0.00,,,0.00,VWS V14.01,2013-09-26 15:54:00,
2013-09-26 11:59:00,71.4,32.8,31.01,WNW,287,0.0,0.0,24,0.00,,,0.00,VWS V14.01,2013-09-26 15:59:00,
2013-09-26 12:04:00,72.1,33.4,31.01,WNW,287,0.0,0.0,24,0.00,,,0.00,VWS V14.01,2013-09-26 16:04:00,
2013-09-26 12:09:00,72.5,33.7,31.01,WNW,287,0.0,0.0,24,0.00,,,0.00,VWS V14.01,2013-09-26 16:09:00,
2013-09-26 12:14:00,72.1,32.3,31.01,WNW,287,0.0,0.0,23,0.00,,,0.00,VWS V14.01,2013-09-26 16:14:00,
2013-09-26 12:19:00,72.0,32.2,31.01,WNW,287,0.0,0.0,23,0.00,,,0.00,VWS V14.01,2013-09-26 16:19:00,
2013-09-26 12:25:00,71.4,31.7,31.01,WNW,287,0.0,0.0,23,0.00,,,0.00,VWS V14.01,2013-09-26 16:25:00,
2013-09-26 12:30:00,71.1,31.4,31.01,WNW,287,0.0,0.0,23,0.00,,,0.00,VWS V14.01,2013-09-26 16:30:00,
2013-09-26 12:35:00,71.2,31.6,31.01,WNW,287,0.0,0.0,23,0.00,,,0.00,VWS V14.01,2013-09-26 16:35:00,
2013-09-26 12:39:00,71.4,32.8,30.77,WNW,287,0.0,0.0,24,0.00,,,0.00,VWS V14.01,2013-09-26 16:39:00,
2013-09-26 12:45:00,71.4,31.7,30.77,WNW,287,0.0,0.0,23,0.00,,,0.00,VWS V14.01,2013-09-26 16:45:00,
2013-09-26 12:50:00,70.7,32.2,30.77,WNW,287,0.0,0.0,24,0.00,,,0.00,VWS V14.01,2013-09-26 16:50:00,
2013-09-26 12:54:00,70.2,31.7,30.86,WNW,287,0.0,0.0,24,0.00,,,0.00,VWS V14.01,2013-09-26 16:54:00,
2013-09-26 13:00:00,70.0,32.6,30.86,WNW,287,0.0,0.0,25,0.00,,,0.00,VWS V14.01,2013-09-26 17:00:00,
2013-09-26 13:05:00,69.8,31.4,30.86,WNW,287,0.0,0.0,24,0.00,,,0.00,VWS V14.01,2013-09-26 17:05:00,
2013-09-26 13:10:00,69.3,32.9,30.62,WNW,287,0.0,0.0,26,0.00,,,0.00,VWS V14.01,2013-09-26 17:10:00,
2013-09-26 13:15:00,68.9,32.6,30.62,WNW,287,0.0,0.0,26,0.00,,,0.00,VWS V14.01,2013-09-26 17:15:00,
2013-09-26 13:20:00,69.1,33.7,30.62,WNW,287,0.0,0.0,27,0.00,,,0.00,VWS V14.01,2013-09-26 17:20:00,
2013-09-26 13:25:00,69.4,34.0,30.47,WNW,287,0.0,0.0,27,0.00,,,0.00,VWS V14.01,2013-09-26 17:25:00,
2013-09-26 13:30:00,69.4,33.1,30.47,WNW,287,0.0,0.0,26,0.00,,,0.00,VWS V14.01,2013-09-26 17:30:00,
2013-09-26 13:35:00,69.4,34.0,30.53,WNW,287,0.0,0.0,27,0.00,,,0.00,VWS V14.01,2013-09-26 17:35:00,
2013-09-26 13:40:00,70.2,34.7,30.53,WNW,287,0.0,0.0,27,0.00,,,0.00,VWS V14.01,2013-09-26 17:40:00,
2013-09-26 13:45:00,70.5,33.0,30.53,WNW,287,0.0,0.0,25,0.00,,,0.00,VWS V14.01,2013-09-26 17:45:00,
2013-09-26 13:50:00,70.7,32.2,30.53,WNW,287,0.0,0.0,24,0.00,,,0.00,VWS V14.01,2013-09-26 17:50:00,
2013-09-26 13:55:00,70.7,31.1,30.45,WNW,287,0.0,0.0,23,0.00,,,0.00,VWS V14.01,2013-09-26 17:55:00,
2013-09-26 14:00:00,70.7,31.1,30.45,WNW,287,0.0,0.0,23,0.00,,,0.00,VWS V14.01,2013-09-26 18:00:00,
2013-09-26 14:05:00,70.7,31.1,30.45,WNW,287,0.0,0.0,23,0.00,,,0.00,VWS V14.01,2013-09-26 18:05:00,
2013-09-26 14:10:00,70.5,31.0,30.50,WNW,287,0.0,0.0,23,0.00,,,0.00,VWS V14.01,2013-09-26 18:10:00,
2013-09-26 14:15:00,70.5,31.0,30.50,NNW,336,3.1,3.1,23,0.00,,,0.00,VWS V14.01,2013-09-26 18:15:00,
2013-09-26 14:20:00,70.3,30.8,30.50,NW,313,0.0,2.7,23,0.00,,,0.00,VWS V14.01,2013-09-26 18:20:00,
2013-09-26 14:25:00,70.2,30.7,30.62,WNW,295,0.0,0.0,23,0.00,,,0.00,VWS V14.01,2013-09-26 18:25:00,
2013-09-26 14:30:00,69.8,30.4,30.62,NW,309,3.1,4.0,23,0.00,,,0.00,VWS V14.01,2013-09-26 18:30:00,
2013-09-26 14:35:00,69.6,30.2,30.39,North,0,3.6,3.6,23,0.00,,,0.00,VWS V14.01,2013-09-26 18:35:00,
2013-09-26 14:40:00,69.3,29.9,30.39,NW,320,2.2,2.2,23,0.00,,,0.00,VWS V14.01,2013-09-26 18:40:00,
2013-09-26 14:45:00,69.3,29.9,30.39,NW,307,0.0,0.0,23,0.00,,,0.00,VWS V14.01,2013-09-26 18:45:00,
2013-09-26 14:50:00,69.3,29.9,30.39,NW,307,0.0,0.0,23,0.00,,,0.00,VWS V14.01,2013-09-26 18:50:00,
2013-09-26 14:55:00,69.3,29.9,30.21,WNW,298,0.0,0.0,23,0.00,,,0.00,VWS V14.01,2013-09-26 18:55:00,
2013-09-26 15:00:00,69.4,30.1,30.21,West,259,0.0,0.0,23,0.00,,,0.00,VWS V14.01,2013-09-26 19:00:00,
2013-09-26 15:05:00,69.6,30.2,30.21,West,259,0.0,0.0,23,0.00,,,0.00,VWS V14.01,2013-09-26 19:05:00,
2013-09-26 15:10:00,69.6,30.2,30.27,West,259,0.0,0.0,23,0.00,,,0.00,VWS V14.01,2013-09-26 19:10:00,
2013-09-26 15:15:00,69.8,30.4,30.27,West,259,0.0,0.0,23,0.00,,,0.00,VWS V14.01,2013-09-26 19:15:00,
2013-09-26 15:20:00,69.8,29.3,30.62,West,280,0.0,0.0,22,0.00,,,0.00,VWS V14.01,2013-09-26 19:20:00,
2013-09-26 15:25:00,70.0,29.4,30.62,SSW,200,0.0,0.0,22,0.00,,,0.00,VWS V14.01,2013-09-26 19:25:00,
2013-09-26 15:30:00,70.2,30.7,30.62,ESE,103,2.2,2.2,23,0.00,,,0.00,VWS V14.01,2013-09-26 19:30:00,
2013-09-26 15:35:00,70.3,29.7,30.62,WNW,290,0.0,0.0,22,0.00,,,0.00,VWS V14.01,2013-09-26 19:35:00,
2013-09-26 15:40:00,70.3,29.7,30.71,ESE,111,0.0,0.0,22,0.00,,,0.00,VWS V14.01,2013-09-26 19:40:00,
2013-09-26 15:45:00,70.3,29.7,30.71,WNW,291,0.0,0.0,22,0.00,,,0.00,VWS V14.01,2013-09-26 19:45:00,
2013-09-26 15:50:00,70.5,29.9,30.71,SSW,203,0.0,0.0,22,0.00,,,0.00,VWS V14.01,2013-09-26 19:50:00,
2013-09-26 15:55:00,70.7,30.0,30.95,SSW,203,0.0,0.0,22,0.00,,,0.00,VWS V14.01,2013-09-26 19:55:00,
2013-09-26 16:01:00,70.5,29.9,30.95,SSW,203,0.0,0.0,22,0.00,,,0.00,VWS V14.01,2013-09-26 20:01:00,
2013-09-26 16:06:00,70.9,26.6,30.50,SSW,203,0.0,0.0,19,0.00,,,0.00,VWS V14.01,2013-09-26 20:06:00,
2013-09-26 16:11:00,70.9,26.6,30.50,SSW,203,0.0,0.0,19,0.00,,,0.00,VWS V14.01,2013-09-26 20:11:00,
2013-09-26 16:16:00,71.2,30.5,30.50,SSW,203,0.0,0.0,22,0.00,,,0.00,VWS V14.01,2013-09-26 20:16:00,
2013-09-26 16:21:00,71.2,30.5,30.06,SSW,203,0.0,0.0,22,0.00,,,0.00,VWS V14.01,2013-09-26 20:21:00,
2013-09-26 16:26:00,71.2,26.9,30.06,WSW,241,0.0,0.0,19,0.00,,,0.00,VWS V14.01,2013-09-26 20:26:00,
2013-09-26 16:31:00,71.2,26.9,30.06,South,183,0.0,0.0,19,0.00,,,0.00,VWS V14.01,2013-09-26 20:31:00,
2013-09-26 16:36:00,71.1,26.8,29.94,WSW,257,0.0,0.0,19,0.00,,,0.00,VWS V14.01,2013-09-26 20:36:00,
2013-09-26 16:41:00,71.1,26.8,29.94,West,268,0.0,0.0,19,0.00,,,0.00,VWS V14.01,2013-09-26 20:41:00,
2013-09-26 16:46:00,71.4,27.0,29.94,SW,226,0.0,0.0,19,0.00,,,0.00,VWS V14.01,2013-09-26 20:46:00,
2013-09-26 16:51:00,71.4,27.0,29.97,SW,226,0.0,0.0,19,0.00,,,0.00,VWS V14.01,2013-09-26 20:51:00,
2013-09-26 16:56:00,71.1,24.1,29.97,SW,226,0.0,0.0,17,0.00,,,0.00,VWS V14.01,2013-09-26 20:56:00,
2013-09-26 17:01:00,70.9,23.9,29.97,SW,226,0.0,0.0,17,0.00,,,0.00,VWS V14.01,2013-09-26 21:01:00,
2013-09-26 17:06:00,70.9,23.9,30.15,SW,226,0.0,0.0,17,0.00,,,0.00,VWS V14.01,2013-09-26 21:06:00,
2013-09-26 17:11:00,71.1,24.1,30.15,SW,226,0.0,0.0,17,0.00,,,0.00,VWS V14.01,2013-09-26 21:11:00,
2013-09-26 17:16:00,71.2,24.2,30.15,SW,226,0.0,0.0,17,0.00,,,0.00,VWS V14.01,2013-09-26 21:16:00,
2013-09-26 17:21:00,71.1,24.1,30.15,SW,226,0.0,0.0,17,0.00,,,0.00,VWS V14.01,2013-09-26 21:21:00,
2013-09-26 17:26:00,71.1,24.1,30.15,SW,226,0.0,0.0,17,0.00,,,0.00,VWS V14.01,2013-09-26 21:26:00,
2013-09-26 17:31:00,70.9,23.9,30.15,SW,226,0.0,0.0,17,0.00,,,0.00,VWS V14.01,2013-09-26 21:31:00,
2013-09-26 17:36:00,70.9,23.9,30.27,SW,226,0.0,0.0,17,0.00,,,0.00,VWS V14.01,2013-09-26 21:36:00,
2013-09-26 17:41:00,70.9,23.9,30.27,SW,226,0.0,0.0,17,0.00,,,0.00,VWS V14.01,2013-09-26 21:41:00,
2013-09-26 17:47:00,70.9,23.9,30.27,SW,226,0.0,0.0,17,0.00,,,0.00,VWS V14.01,2013-09-26 21:47:00,
2013-09-26 17:52:00,70.5,23.6,29.88,SW,226,0.0,0.0,17,0.00,,,0.00,VWS V14.01,2013-09-26 21:52:00,
2013-09-26 17:57:00,70.3,23.5,29.88,SW,226,0.0,0.0,17,0.00,,,0.00,VWS V14.01,2013-09-26 21:57:00,
2013-09-26 18:02:00,70.3,23.5,29.88,SW,226,0.0,0.0,17,0.00,,,0.00,VWS V14.01,2013-09-26 22:02:00,
2013-09-26 18:07:00,70.2,23.4,30.09,SW,226,0.0,0.0,17,0.00,,,0.00,VWS V14.01,2013-09-26 22:07:00,
2013-09-26 18:12:00,70.2,26.0,30.09,SW,226,0.0,0.0,19,0.00,,,0.00,VWS V14.01,2013-09-26 22:12:00,
2013-09-26 18:17:00,69.6,26.8,30.09,SW,226,0.0,0.0,20,0.00,,,0.00,VWS V14.01,2013-09-26 22:17:00,
2013-09-26 18:22:00,69.1,26.4,29.97,SW,226,0.0,0.0,20,0.00,,,0.00,VWS V14.01,2013-09-26 22:22:00,
2013-09-26 18:27:00,68.5,25.9,29.97,SW,226,0.0,0.0,20,0.00,,,0.00,VWS V14.01,2013-09-26 22:27:00,
2013-09-26 18:32:00,68.0,27.8,29.97,SW,226,0.0,0.0,22,0.00,,,0.00,VWS V14.01,2013-09-26 22:32:00,
2013-09-26 18:37:00,67.6,27.5,29.91,SW,226,0.0,0.0,22,0.00,,,0.00,VWS V14.01,2013-09-26 22:37:00,
2013-09-26 18:42:00,67.3,27.2,29.91,SW,226,0.0,0.0,22,0.00,,,0.00,VWS V14.01,2013-09-26 22:42:00,
2013-09-26 18:47:00,66.9,27.9,29.91,SW,226,0.0,0.0,23,0.00,,,0.00,VWS V14.01,2013-09-26 22:47:00,
2013-09-26 18:52:00,66.4,27.5,30.12,SW,226,0.0,0.0,23,0.00,,,0.00,VWS V14.01,2013-09-26 22:52:00,
2013-09-26 18:57:00,66.0,27.2,30.12,SW,226,0.0,0.0,23,0.00,,,0.00,VWS V14.01,2013-09-26 22:57:00,
2013-09-26 19:02:00,65.8,27.0,30.12,SW,226,0.0,0.0,23,0.00,,,0.00,VWS V14.01,2013-09-26 23:02:00,
2013-09-26 19:07:00,65.5,27.8,29.85,SW,226,0.0,0.0,24,0.00,,,0.00,VWS V14.01,2013-09-26 23:07:00,
2013-09-26 19:12:00,65.1,27.5,29.85,SW,226,0.0,0.0,24,0.00,,,0.00,VWS V14.01,2013-09-26 23:12:00,
2013-09-26 19:17:00,64.8,27.2,29.85,SW,226,0.0,0.0,24,0.00,,,0.00,VWS V14.01,2013-09-26 23:17:00,
2013-09-26 19:22:00,64.4,26.9,29.91,SW,226,0.0,0.0,24,0.00,,,0.00,VWS V14.01,2013-09-26 23:22:00,
2013-09-26 19:27:00,64.0,27.5,29.91,SW,226,0.0,0.0,25,0.00,,,0.00,VWS V14.01,2013-09-26 23:27:00,
2013-09-26 19:32:00,63.7,27.2,29.91,SW,226,0.0,0.0,25,0.00,,,0.00,VWS V14.01,2013-09-26 23:32:00,
2013-09-26 19:37:00,63.3,27.9,30.00,SW,226,0.0,0.0,26,0.00,,,0.00,VWS V14.01,2013-09-26 23:37:00,
2013-09-26 19:42:00,63.0,27.6,30.00,SW,226,0.0,0.0,26,0.00,,,0.00,VWS V14.01,2013-09-26 23:42:00,
2013-09-26 19:47:00,62.8,27.4,30.00,SW,226,0.0,0.0,26,0.00,,,0.00,VWS V14.01,2013-09-26 23:47:00,
2013-09-26 19:52:00,62.4,28.0,30.03,SW,226,0.0,0.0,27,0.00,,,0.00,VWS V14.01,2013-09-26 23:52:00,
2013-09-26 19:57:00,62.2,28.8,30.03,SW,226,0.0,0.0,28,0.00,,,0.00,VWS V14.01,2013-09-26 23:57:00,
2013-09-26 20:02:00,61.9,28.4,30.03,SW,226,0.0,0.0,28,0.00,,,0.00,VWS V14.01,2013-09-27 00:02:00,
2013-09-26 20:07:00,61.7,29.1,29.85,SW,226,0.0,0.0,29,0.00,,,0.00,VWS V14.01,2013-09-27 00:07:00,